This demonstration page uses our WeatherBlox Daily Observations layout. Learn more.

Left ArrowRight Arrow

Hourly Observations for December 3, 2022

Temp ( °F °C ) Dew Point ( °F °C ) Humidity (%) Winds ( mph kmh ) Pressure ( in mb ) Visibility ( mi km ) Precip ( " mm )
12:15 am 00:15 Cloudy 45 7 30 -1 57 57 S 10 17 30.33 1027 10 16 0.00 0.00
12:35 am 00:35 Cloudy 46 8 30 -1 53 53 SSW 12 19 30.33 1027 10 16 0.00 0.00
12:55 am 00:55 Cloudy 46 8 32 0 57 57 S 14 22 30.31 1026 10 16 0.00 0.00
1:15 am 01:15 Cloudy with Light Rain 45 7 36 2 70 70 SSW 8 13 30.31 1026 10 16 0.00 0.00
1:35 am 01:35 Cloudy with Light Rain 46 8 37 3 71 71 SSW 16 26 30.30 1026 10 16 0.00 0.00
1:55 am 01:55 Cloudy 46 8 37 3 71 71 S 13 20 30.29 1026 10 16 0.00 0.00
2:15 am 02:15 Cloudy 46 8 37 3 71 71 S 14 22 30.28 1025 10 16 0.00 0.00
2:35 am 02:35 Cloudy 46 8 37 3 71 71 S 13 20 30.29 1026 10 16 0.00 0.00
2:55 am 02:55 Cloudy with Light Rain 46 8 37 3 71 71 S 15 24 30.27 1025 10 16 0.00 0.00
3:15 am 03:15 Cloudy with Light Rain 45 7 41 5 87 87 S 14 22 30.26 1025 10 16 0.00 0.00
3:35 am 03:35 Cloudy 46 8 41 5 81 81 SSW 12 19 30.24 1024 10 16 0.00 0.00
3:55 am 03:55 Cloudy 46 8 41 5 81 81 S 12 19 30.22 1023 10 16 0.00 0.00
4:15 am 04:15 Cloudy 46 8 41 5 81 81 S 10 17 30.22 1023 10 16 0.00 0.00
4:35 am 04:35 Cloudy 48 9 43 6 81 81 SSW 13 20 30.21 1023 10 16 0.00 0.00
4:55 am 04:55 Cloudy 48 9 43 6 81 81 SSW 13 20 30.21 1023 10 16 0.00 0.00
5:15 am 05:15 Mostly Cloudy 48 9 43 6 81 81 SSW 9 15 30.20 1023 10 16 0.00 0.00
5:35 am 05:35 Cloudy with Light Rain 50 10 45 7 82 82 S 10 17 30.20 1023 10 16 0.00 0.00
5:55 am 05:55 Cloudy with Light Rain 50 10 45 7 82 82 SSW 8 13 30.21 1023 10 16 0.00 0.00
6:15 am 06:15 Cloudy with Nearby Thunderstorms 48 9 46 8 93 93 SSW 6 9 30.24 1024 10 16 0.00 0.00
6:35 am 06:35 Cloudy with Rain 48 9 46 8 93 93 S 7 11 30.21 1023 7 11 0.00 0.00
6:55 am 06:55 Cloudy with Rain 48 9 48 9 100 100 S 8 13 30.19 1022 7 11 0.00 0.00
7:15 am 07:15 Cloudy with Rain 48 9 48 9 100 100 S 12 19 30.19 1022 7 11 0.00 0.00
7:35 am 07:35 Cloudy with Rain 50 10 48 9 93 93 S 14 22 30.18 1022 7 11 0.00 0.00
7:55 am 07:55 Cloudy with Rain 50 10 50 10 100 100 S 10 17 30.19 1022 5 8 0.00 0.00
8:15 am 08:15 Cloudy with Light Rain 50 10 50 10 100 100 S 14 22 30.18 1022 4 6 0.00 0.00
8:35 am 08:35 Cloudy 50 10 50 10 100 100 S 16 26 30.17 1022 10 16 0.00 0.00
8:55 am 08:55 Cloudy with Light Rain 50 10 50 10 100 100 SSW 14 22 30.17 1022 10 16 0.00 0.00
9:15 am 09:15 Cloudy 50 10 50 10 100 100 SSW 10 17 30.16 1021 10 16 0.00 0.00
9:35 am 09:35 Cloudy 52 11 52 11 100 100 SSW 15 24 30.13 1020 10 16 0.00 0.00
9:55 am 09:55 Cloudy 52 11 52 11 100 100 SSW 16 26 30.14 1021 10 16 0.00 0.00
10:15 am 10:15 Cloudy 52 11 52 11 100 100 SSW 14 22 30.13 1020 10 16 0.00 0.00
10:35 am 10:35 Cloudy 54 12 52 11 94 94 SSW 15 24 30.12 1020 10 16 0.00 0.00
10:55 am 10:55 Mostly Cloudy 54 12 54 12 100 100 SSW 16 26 30.11 1020 10 16 0.00 0.00
11:15 am 11:15 Mostly Cloudy 54 12 54 12 100 100 SSW 15 24 30.10 1019 10 16 0.00 0.00
11:35 am 11:35 Mostly Cloudy 57 14 55 13 94 94 SSW 17 28 30.09 1019 10 16 0.00 0.00
11:55 am 11:55 Cloudy 55 13 54 12 94 94 SSW 12 19 30.08 1019 10 16 0.00 0.00
12:15 pm 12:15 Cloudy 57 14 54 12 88 88 SSW 14 22 30.07 1018 10 16 0.00 0.00
12:35 pm 12:35 Cloudy 57 14 54 12 88 88 SW 12 19 30.06 1018 10 16 0.00 0.00
12:55 pm 12:55 Mostly Cloudy 59 15 55 13 88 88 S 15 24 30.04 1017 10 16 0.00 0.00
1:15 pm 13:15 Mostly Cloudy 61 16 55 13 82 82 SSW 14 22 30.04 1017 10 16 0.00 0.00
1:35 pm 13:35 Mostly Cloudy 61 16 55 13 82 82 SSW 15 24 30.03 1017 10 16 0.00 0.00
1:55 pm 13:55 Mostly Cloudy 61 16 54 12 77 77 SSW 9 15 30.03 1017 10 16 0.00 0.00
2:15 pm 14:15 Mostly Cloudy 61 16 55 13 82 82 SSW 9 15 30.03 1017 10 16 0.00 0.00
2:35 pm 14:35 Partly Cloudy 63 17 55 13 77 77 SSW 8 13 30.03 1017 10 16 0.00 0.00
2:55 pm 14:55 Partly Cloudy 63 17 55 13 77 77 SSW 15 24 30.02 1016 10 16 0.00 0.00
3:15 pm 15:15 Mostly Cloudy 61 16 54 12 77 77 SSW 13 20 30.03 1017 10 16 0.00 0.00
3:35 pm 15:35 Cloudy 61 16 55 13 82 82 SSW 6 9 30.04 1017 10 16 0.00 0.00
3:55 pm 15:55 Mostly Cloudy 61 16 55 13 82 82 SSW 7 11 30.04 1017 10 16 0.00 0.00
4:15 pm 16:15 Mostly Cloudy 61 16 55 13 82 82 SW 7 11 30.05 1018 10 16 0.00 0.00
4:35 pm 16:35 Cloudy 61 16 55 13 82 82 W 8 13 30.08 1019 10 16 0.00 0.00
4:55 pm 16:55 Mostly Cloudy 61 16 50 10 68 68 NW 14 22 30.08 1019 10 16 0.00 0.00
5:15 pm 17:15 Partly Cloudy 59 15 46 8 63 63 NW 14 22 30.09 1019 10 16 0.00 0.00
5:35 pm 17:35 Clear 59 15 43 6 55 55 NW 13 20 30.09 1019 10 16 0.00 0.00
5:55 pm 17:55 Clear 59 15 41 5 51 51 NW 23 37 30.11 1020 10 16 0.00 0.00
6:15 pm 18:15 Clear 57 14 41 5 55 55 NW 22 35 30.13 1020 10 16 0.00 0.00
6:35 pm 18:35 Clear 55 13 34 1 44 44 NW 21 33 30.14 1021 10 16 0.00 0.00
6:55 pm 18:55 Clear 55 13 32 0 41 41 WNW 8 13 30.16 1021 10 16 0.00 0.00
7:15 pm 19:15 Clear 54 12 32 0 44 44 NW 5 7 30.18 1022 10 16 0.00 0.00
7:35 pm 19:35 Clear 54 12 32 0 44 44 WNW 8 13 30.19 1022 10 16 0.00 0.00
7:55 pm 19:55 Clear 54 12 32 0 44 44 NNW 13 20 30.21 1023 10 16 0.00 0.00
8:15 pm 20:15 Clear 52 11 32 0 47 47 NNW 12 19 30.23 1024 10 16 0.00 0.00
8:35 pm 20:35 Clear 52 11 32 0 47 47 N 8 13 30.24 1024 10 16 0.00 0.00
8:55 pm 20:55 Clear 50 10 32 0 50 50 NNW 13 20 30.24 1024 10 16 0.00 0.00
9:15 pm 21:15 Clear 50 10 32 0 50 50 NNW 15 24 30.25 1024 10 16 0.00 0.00
9:35 pm 21:35 Clear 50 10 30 -1 46 46 NNW 9 15 30.26 1025 10 16 0.00 0.00
9:55 pm 21:55 Clear 48 9 30 -1 49 49 N 6 9 30.27 1025 10 16 0.00 0.00
10:15 pm 22:15 Clear 45 7 32 0 61 61 NW 8 13 30.26 1025 10 16 0.00 0.00
10:35 pm 22:35 Clear 46 8 32 0 57 57 NW 14 22 30.27 1025 10 16 0.00 0.00
10:55 pm 22:55 Clear 45 7 32 0 61 61 WNW 9 15 30.28 1025 10 16 0.00 0.00
11:15 pm 23:15 Clear 45 7 30 -1 57 57 WNW 10 17 30.27 1025 10 16 0.00 0.00
11:35 pm 23:35 Clear 43 6 30 -1 61 61 NW 6 9 30.27 1025 10 16 0.00 0.00
11:55 pm 23:55 Clear 43 6 30 -1 61 61 N 5 7 30.27 1025 10 16 0.00 0.00

Powered by AerisWeather